Regional Weather Roundup
Issued by NWS Sioux Falls, SD

Home | Current Version | Previous Version | Text Only | Print | Product List | Glossary On
Versions: 1 2 3 4 5 6 7 8 9 10 11 12 13 14 15 16 17 18 19 20 21 22 23 24 25 26 27 28 29 30 31 32 33 34 35 36 37 38 39 40 41 42 43 44 45 46 47 48 49 50
000
ASUS43 KFSD 201402
RWRFSD

WEATHER ROUNDUP FOR SE SOUTH DAKOTA/SW MINNESOTA/NW IOWA
NATIONAL WEATHER SERVICE SIOUX FALLS SD
900 AM CDT SUN APR 20 2014

NOTE: "FAIR" INDICATES FEW OR NO CLOUDS BELOW 12,000 FEET WITH NO
SIGNIFICANT WEATHER AND OR OBSTRUCTIONS TO VISIBILITY.


SDZ038>040-050-052>070-201500-
SOUTHEAST SOUTH DAKOTA

CITY           SKY/WX    TMP DP  RH WIND       PRES   REMARKS
CHAMBERLAIN      N/A     50  34  54 SE5       29.99F
HURON          SUNNY     53  32  44 SE5       30.00R
MADISON        FAIR      48  32  53 E8        30.02S
MITCHELL       SUNNY     50  33  52 CALM      30.01S
SIOUX FALLS    MOSUNNY   58  40  51 N7        30.00S
WINNER         FAIR      60  30  32 SE12      29.98S
YANKTON        MOSUNNY   57  39  51 NE7       29.99S
$$

MNZ071-072-080-081-089-090-097-098-201500-
SOUTHWEST MINNESOTA

CITY           SKY/WX    TMP DP  RH WIND       PRES   REMARKS
FAIRMONT       CLOUDY    52  46  82 CALM      30.04S
JACKSON        CLOUDY    59  46  63 E7        30.03R
LUVERNE        SUNNY     59  37  44 NE8       30.01S
MARSHALL       SUNNY     48  37  66 NW7       30.03S
MONTEVIDEO     SUNNY     48  39  71 SE8       30.04S
PIPESTONE      SUNNY     59  34  38 E8        30.01S
REDWOOD FALLS  SUNNY     52  42  69 N5        30.02F
TRACY          SUNNY     51  39  63 CALM      30.04R
WINDOM         PTSUNNY   55  43  62 N6        30.03S
WORTHINGTON    SUNNY     54  36  50 N10       30.05R
$$

IAZ001>003-012>014-020>022-031-032-NEZ013-014-SDZ071-201500-
NORTHWEST IOWA

CITY           SKY/WX    TMP DP  RH WIND       PRES   REMARKS
CHEROKEE       CLOUDY    55  54  95 CALM      30.00R THUNDER
DENISON        PTSUNNY   64  48  55 S12G18    29.99S
ESTHERVILLE    CLOUDY    54  49  83 CALM      30.02R
SHELDON        MOSUNNY   55  45  67 NE13      29.98F
SIOUX CITY     PTSUNNY   60  53  77 SE6       29.98S
SPENCER        PTSUNNY   59  48  67 E7        30.00F
STORM LAKE     CLOUDY    55  54  94 S7        30.01R
$$

ABBREVIATIONS USED IN REMARKS
   TC - TEMPERATURE IN CELSIUS
  WCI - WIND CHILL INDEX
   HX - HEAT INDEX
  VSB - VISIBILITY




USA.gov is the U.S. government's official web portal to all federal, state and local government web resources and services.